Rbgn^[z[y[W
メイン
   新天体発見情報
     Comet P/2007 B1 = P/2020 W3 (Christensen)
投稿するにはまず登録を

スレッド表示 | 新しいものから 前のトピック | 次のトピック | 下へ
投稿者 スレッド
佐藤裕久
投稿日時: 2021-1-24 2:26
モデレータ
登録日: 2005-6-12
居住地: 日本
投稿: 2180
オンライン
Comet P/2007 B1 = P/2020 W3 (Christensen)

E. Schwab (Egelsbach, ドイツ)の通報によると、11月17日UT、スペイン、Calar Altoにある
0.8-m f/3 Schmidt反射望遠鏡の画像からP/2007 B1 (IAUC 8797を参照))を検出した。尾もコ
マも見えないイメージであった。K. Wierzchosの報告によると、1月6日、Mt Lemmon サーベイ
の1.5-m 反射望遠鏡で得た画像から集光した7"のコマとp.a.255°に16"の尾がある。

検出位置は次のとおり、

     2020 UT             R.A. (2000) Decl.       Mag.   Observer
     Nov. 17.13119    8 30 46.28   +25 42 23.0   21.7   Schwab
          17.14361    8 30 46.99   +25 42 25.2   21.2     "
          17.15602    8 30 47.66   +25 42 28.8   21.3     "
          18.17286    8 31 44.58   +25 46 28.9   21.2     "
          18.18526    8 31 45.29   +25 46 31.9   21.3     "
          18.19766    8 31 45.91   +25 46 34.6   21.3     "

NK 3663およびICQ's 2020 Comet Handbookの中野主一氏の予報に対し、Delta(T)は、-0.89 
dayであった。MPC 59319のB. G. Marsdenの予報に対するDelta(T)は、-1.14 daysであった。
彗星年表2020の佐藤裕久の予報に対する修正値は、Delta(T) = -1.03 daysであった。

MPCの連結軌道要素と位置推算表は次のとおり、

Orbital elements:
    P/2007 B1 (Christensen)                                                     
Epoch 2007 Jan. 20.0 TT = JDT 2454120.5                                         
T 2007 Jan. 19.80357 TT                                 Bell                    
q   2.4426952            (2000.0)            P               Q                  
n   0.07003037     Peri.   46.84788     -0.55187643     -0.80718421             
a   5.8292379      Node    77.79416     +0.68934271     -0.58293455             
e   0.5809581      Incl.   12.37653     +0.46929632     -0.09295675             
P  14.1                                                                         
From 162 observations 2007 Jan. 17-2021 Jan. 6, mean residual 0".8.             
                                                                                
    P/2007 B1 (Christensen)                                                     
Epoch 2021 Jan. 26.0 TT = JDT 2459240.5                                         
T 2021 Jan. 24.49128 TT                                 Bell                    
q   2.4387611            (2000.0)            P               Q                  
n   0.07021728     Peri.   46.69154     -0.54794869     -0.80987653             
a   5.8188887      Node    77.67411     +0.69198099     -0.57950018             
e   0.5808888      Incl.   12.37741     +0.47001548     -0.09099204             
P  14.0                                                                         
From 162 observations 2007 Jan. 17-2021 Jan. 6, mean residual 0".8.             
                                                                                
    P/2007 B1 (Christensen)                                                     
Epoch 2035 Feb. 2.0 TT = JDT 2464360.5                                          
T 2035 Feb. 7.29350 TT                                  Bell                    
q   2.4448462            (2000.0)            P               Q                  
n   0.06996536     Peri.   46.70833     -0.54589383     -0.81133825             
a   5.8328478      Node    77.51262     +0.69327893     -0.57755688             
e   0.5808486      Incl.   12.36768     +0.47049363     -0.09032330             
P  14.1                                                                         
From 162 observations 2007 Jan. 17-2021 Jan. 6, mean residual 0".8.             
                                                                                
    P/2007 B1 (Christensen)                                                     
Epoch 2020 Dec. 17.0 TT = JDT 2459200.5                                         
T 2021 Jan. 24.49881 TT                                 Bell                    
q   2.4387572            (2000.0)            P               Q                  
n   0.07021747     Peri.   46.69345     -0.54798332     -0.80985239             
a   5.8188782      Node    77.67467     +0.69195602     -0.57953119             
e   0.5808888      Incl.   12.37755     +0.47001186     -0.09100941             
P  14.0                                                                         
From 162 observations 2007 Jan. 17-2021 Jan. 6, mean residual 0".8.             
                                                                                
Ephemeris:
Date    TT    R. A. (2000) Decl.     Delta      r    Elong.  Phase   m1
2020 12 08    08 45 37.2 +27 31 39   1.7295  2.4710   129.0    18.0  20.1
...
2020 12 23    08 49 21.4 +29 25 12   1.5954  2.4540   143.1    13.9  19.9
...
2020 12 31    08 48 48.5 +30 34 07   1.5422  2.4474   150.7    11.3  19.8
...
2021 01 06    08 47 18.8 +31 27 07   1.5118  2.4437   156.1     9.4  19.8
2021 01 07    08 46 58.8 +31 35 55   1.5076  2.4432   157.0     9.0  19.8
2021 01 08    08 46 37.5 +31 44 42   1.5036  2.4427   157.8     8.7  19.8
...
2021 01 14    08 44 04.3 +32 36 07   1.4850  2.4404   162.3     7.0  19.7
...
2021 01 22    08 39 49.3 +33 38 53   1.4745  2.4389   165.2     5.9  19.7
...
2021 02 06    08 31 12.5 +35 05 48   1.4989  2.4410   157.9     8.7  19.8

(MPEC 2021-A66、CBET 4903、oaa-comet 1476)

スレッド表示 | 新しいものから 前のトピック | 次のトピック | トップ

投稿するにはまず登録を
 
© 1999 Tsutomu Seki.